#timestamp,LO_Frequency,Hit,StdDev 
1629446415.1,286046985.0,N
1629446435.9,286046981.5,Y
1629446455.7,286046983.8,P
1629446475.6,286046984.5,P
1629446495.4,286046982.6,P
1629446515.2,286046982.5,Y
1629446535.1,286046993.5,P
1629446536.0,286046993.5,N
1629446555.8,286046991.7,N
1629446575.6,286046995.3,N
1629446595.5,286047001.0,N
1629446615.3,286047004.2,N
1629446635.2,286047008.8,N
1629446655.9,286047008.8,N
1629446675.7,286047003.3,N
1629446695.6,286047001.1,N
1629446715.4,286046994.9,N
1629446735.2,286046993.6,N
1629446755.1,286046992.2,N
1629446756.0,286046992.2,N
1629446775.8,286046995.7,N
1629446795.7,286046994.5,N
1629446815.5,286046994.2,N
1629446835.3,286046991.4,N
1629446855.2,286046990.8,N
1629446875.0,286046990.2,N
1629446875.9,286046990.2,N
1629446895.7,286046990.8,N
1629446915.6,286046988.7,N
1629446935.4,286046988.1,N
1629446955.3,286046989.5,N
1629446975.1,286046988.2,N
1629446976.0,286046988.2,N
1629446995.8,286046986.3,N
1629447015.7,286046984.2,N
1629447035.5,286046985.0,N
1629447055.4,286046988.1,N
1629447075.2,286046994.7,N
1629447095.0,286046999.3,N
1629447095.9,286046999.3,N
1629447115.8,286046999.4,N
1629447135.6,286046997.2,N
1629447155.4,286046992.0,N
1629447175.3,286046990.0,N
1629447195.1,286046986.2,N
1629447215.9,286046982.9,Y
1629447235.7,286046991.9,P
1629447255.5,286046990.1,P
1629447275.4,286046989.3,P
1629447295.2,286046985.7,Y
1629447315.0,286046995.3,P
1629447315.9,286046995.3,N
1629447335.8,286046993.6,P
1629447355.6,286046991.8,Y
1629447375.5,286046999.4,P
1629447395.3,286046998.7,N
1629447415.1,286046998.1,N
1629447435.9,286047001.1,N
1629447455.7,286047000.0,N
1629447475.5,286047002.0,N
1629447495.4,286047003.0,N
1629447515.2,286047005.1,N
1629447535.1,286047002.1,N
1629447536.0,286047002.1,N
1629447555.8,286046999.0,N
1629447575.6,286046998.9,N
1629447595.5,286046996.5,N
1629447615.3,286046996.9,N
1629447635.1,286046994.8,N
1629447655.9,286046992.0,N
1629447675.7,286046992.7,N
1629447695.6,286046990.5,N
1629447715.4,286046991.3,N
1629447735.2,286046988.9,N
1629447755.1,286046989.3,N
1629447756.0,286046989.3,N
1629447775.8,286046987.4,N
1629447795.6,286046985.4,N
1629447815.5,286046986.2,N
1629447835.3,286046984.0,N
1629447855.2,286046982.7,N
1629447875.9,286046982.9,N
1629447895.7,286046983.4,N
1629447915.6,286046980.1,N
1629447935.4,286046977.8,Y
1629447955.2,286046985.8,P
1629447975.1,286046984.4,P
1629447976.0,286046984.4,P
1629447995.8,286046982.7,Y
1629448015.7,286046993.9,P
1629448035.5,286046992.5,N
1629448055.3,286046993.0,N
1629448075.2,286046996.4,N
1629448095.0,286047001.5,N
1629448095.9,286047001.5,N
1629448115.7,286047005.9,N
1629448135.6,286047000.0,N
1629448155.4,286046995.1,N
1629448175.3,286046995.8,N
1629448195.1,286046994.1,N
1629448196.0,286046994.1,N
1629448215.8,286046991.7,N
1629448235.7,286046990.9,N
1629448255.5,286046989.6,N
1629448275.3,286046987.6,N
1629448295.2,286046985.3,N
1629448315.0,286046984.2,N
1629448315.9,286046984.2,N
1629448335.8,286046985.6,N
1629448355.6,286046987.3,N
1629448375.4,286046985.9,N
1629448395.3,286046984.6,N
1629448415.1,286046987.5,N
1629448435.8,286046985.4,N
1629448455.7,286046984.7,N
1629448475.5,286046985.1,N
1629448495.4,286046984.5,N
1629448515.2,286046984.7,N
1629448535.0,286046983.7,N
1629448535.9,286046983.7,N
1629448555.8,286046988.8,N
1629448575.6,286046992.2,N
1629448595.4,286046992.8,N
1629448615.3,286046994.3,N
1629448635.1,286046993.5,N
1629448655.9,286046994.6,N
1629448675.7,286046996.9,N
1629448695.5,286046996.5,N
1629448715.4,286046994.7,N
1629448735.2,286046987.6,N
1629448755.0,286046980.8,Y
1629448755.9,286046980.8,P
1629448775.8,286046991.2,N
1629448795.6,286046988.0,N
1629448815.5,286046986.8,Y
1629448835.3,286046995.4,P
1629448855.1,286046997.8,N
1629448875.9,286046999.8,N
1629448895.7,286047003.0,N
1629448915.6,286047004.2,N
1629448935.4,286047001.8,N
1629448955.2,286047002.9,N
1629448975.1,286047003.1,N
1629448976.0,286047003.1,N
1629448995.8,286047005.5,N
1629449015.6,286047007.2,N
1629449035.5,286047008.7,N
1629449055.3,286047009.6,N
1629449075.2,286047012.0,N
1629449095.9,286047009.8,N
1629449115.7,286047009.2,N
1629449135.6,286047010.6,N
1629449155.4,286047010.6,N
1629449175.2,286047006.6,N
1629449195.1,286047006.2,N
1629449196.0,286047006.2,N
1629449215.8,286047012.1,N
1629449235.7,286047010.0,N
1629449255.5,286047013.1,N
1629449275.3,286047014.5,N
1629449295.2,286047015.2,N
1629449315.9,286047012.7,N
1629449335.7,286047014.2,N
1629449355.6,286047013.9,N
1629449375.4,286047013.8,N
1629449395.3,286047015.6,Y
1629449415.1,286047006.2,P
1629449416.0,286047006.2,P
1629449435.8,286047004.0,P
1629449455.7,286047002.6,N
1629449475.5,286047002.3,N
1629449495.4,286047001.9,N
1629449515.2,286047001.4,N
1629449535.0,286047003.6,N
1629449535.9,286047003.6,N
1629449555.8,286047001.9,N
1629449575.6,286046999.8,N
1629449595.5,286046998.8,N
1629449615.3,286046999.5,N
1629449635.1,286046996.9,N
1629449655.9,286046999.2,N
1629449675.7,286046998.6,N
1629449695.5,286046996.6,N
1629449715.4,286046999.2,N
1629449735.2,286046998.9,N
1629449755.1,286046998.3,N
1629449756.0,286046998.3,N
1629449775.8,286046998.5,N
1629449795.6,286046995.0,N
1629449815.5,286046996.0,N
1629449835.3,286046991.9,N
1629449855.2,286046992.5,N
1629449875.9,286046992.4,N
1629449895.7,286046992.6,N
1629449915.6,286046991.4,N
1629449935.4,286046990.3,N
1629449955.2,286046990.6,N
1629449975.1,286046988.5,N
1629449976.0,286046988.5,N
1629449995.8,286046990.7,N
